Voltar ao catálogo

BDSAGR-1

AtivoCiênciaSSO
NORAD 44879·PAYLOAD·🇨🇳 China
Este nome de satélite ainda não foi confirmado por fontes oficiais.

Lançado Dec 20, 2019 de Taiyuan Satellite Launch Center

Loading…

Próximas Passagens (próximas 24 horas)

TLE

AtualizadoSource: Space-Track

Época: Sep 14, 2026, 12:55 UTC

1 44879U 19093A   26257.53886245  .00001702  00000-0  15755-3 0  9993
2 44879  97.7777 340.7351 0012493 111.5096 248.7458 14.95802279365406

Acompanhe BDSAGR-1 em tempo real com AllMySat

Download on the App Store